When you browse on this site, cookies collect data to enhance your experience and personalize the content and advertising you see.
Visit our Privacy Policy to learn more. By continuing to use the site, you agree to this use of cookies and data.

Stündliche Wetter Zorya

Heute, 10 August, Montag

Zeit Temperatur Niederschläge Wind Luftdruck Luftfeuchtigkeit
00:00 +22°C° 0 mm 4 m/S 749 mmHg 50%
01:00 +21°C° 0 mm 4 m/S 749 mmHg 52%
02:00 +21°C° 0 mm 4 m/S 749 mmHg 53%
03:00 +20°C° 0 mm 4 m/S 749 mmHg 55%
04:00 +20°C° 0 mm 4 m/S 749 mmHg 57%
05:00 +20°C° 0 mm 4 m/S 749 mmHg 58%
06:00 +19°C° 0 mm 4 m/S 749 mmHg 60%
07:00 +21°C° 0 mm 4 m/S 749 mmHg 54%
08:00 +25°C° 0 mm 4 m/S 749 mmHg 48%
09:00 +27°C° 0 mm 4 m/S 749 mmHg 42%
10:00 +28°C° 0 mm 4 m/S 749 mmHg 39%
11:00 +29°C° 0 mm 4 m/S 750 mmHg 36%
12:00 +30°C° 0 mm 4 m/S 750 mmHg 33%
13:00 +30°C° 0 mm 4 m/S 749 mmHg 34%
14:00 +30°C° 0 mm 4 m/S 749 mmHg 34%
15:00 +30°C° 0 mm 4 m/S 749 mmHg 34%
16:00 +30°C° 0 mm 3 m/S 749 mmHg 36%
17:00 +30°C° 0 mm 3 m/S 749 mmHg 37%
18:00 +29°C° 0 mm 3 m/S 749 mmHg 39%
19:00 +28°C° 0 mm 3 m/S 749 mmHg 42%
20:00 +27°C° 0 mm 3 m/S 749 mmHg 45%
21:00 +25°C° 0 mm 3 m/S 749 mmHg 48%
22:00 +25°C° 0 mm 3 m/S 749 mmHg 50%
23:00 +24°C° 0 mm 3 m/S 749 mmHg 52%

Morgen, 11 August, Dienstag

Zeit Temperatur Niederschläge Wind Luftdruck Luftfeuchtigkeit
00:00 +24°C° 0 mm 3 m/S 749 mmHg 54%
01:00 +22°C° 0 mm 3 m/S 749 mmHg 56%
02:00 +21°C° 0 mm 3 m/S 749 mmHg 58%
03:00 +21°C° 0 mm 3 m/S 749 mmHg 61%
04:00 +21°C° 0 mm 3 m/S 749 mmHg 61%
05:00 +20°C° 0 mm 2 m/S 749 mmHg 62%
06:00 +20°C° 0 mm 2 m/S 749 mmHg 62%
07:00 +23°C° 0 mm 2 m/S 749 mmHg 57%
08:00 +25°C° 0 mm 1 m/S 750 mmHg 51%
09:00 +27°C° 0 mm 1 m/S 750 mmHg 46%
10:00 +28°C° 0 mm 1 m/S 750 mmHg 43%
11:00 +29°C° 0 mm 2 m/S 750 mmHg 40%
12:00 +30°C° 0 mm 2 m/S 750 mmHg 37%
13:00 +29°C° 0 mm 2 m/S 749 mmHg 39%
14:00 +29°C° 0 mm 2 m/S 749 mmHg 41%
15:00 +28°C° 0 mm 2 m/S 749 mmHg 43%
16:00 +27°C° 0.1 mm 2 m/S 749 mmHg 47%
17:00 +27°C° 0.1 mm 2 m/S 749 mmHg 50%
18:00 +26°C° 0.1 mm 2 m/S 749 mmHg 54%
19:00 +25°C° 0.1 mm 2 m/S 749 mmHg 58%
20:00 +24°C° 0.1 mm 2 m/S 749 mmHg 62%
21:00 +23°C° 0.1 mm 2 m/S 749 mmHg 66%
22:00 +23°C° 0.1 mm 2 m/S 749 mmHg 68%
23:00 +21°C° 0.1 mm 3 m/S 749 mmHg 69%

übermorgen, 12 August, Mittwoch

Zeit Temperatur Niederschläge Wind Luftdruck Luftfeuchtigkeit
00:00 +21°C° 0.1 mm 3 m/S 749 mmHg 71%
01:00 +20°C° 0 mm 2 m/S 749 mmHg 72%
02:00 +20°C° 0 mm 2 m/S 749 mmHg 73%
03:00 +20°C° 0 mm 2 m/S 748 mmHg 75%
04:00 +19°C° 0 mm 2 m/S 748 mmHg 75%
05:00 +20°C° 0 mm 1 m/S 748 mmHg 76%
06:00 +20°C° 0 mm 1 m/S 748 mmHg 77%
07:00 +22°C° 0 mm 1 m/S 748 mmHg 69%
08:00 +24°C° 0 mm 1 m/S 748 mmHg 62%
09:00 +26°C° 0 mm 1 m/S 748 mmHg 54%
10:00 +28°C° 0 mm 2 m/S 748 mmHg 48%
11:00 +29°C° 0 mm 2 m/S 748 mmHg 42%
12:00 +31°C° 0 mm 3 m/S 748 mmHg 36%
13:00 +30°C° 0 mm 3 m/S 748 mmHg 37%
14:00 +30°C° 0 mm 3 m/S 748 mmHg 39%
15:00 +30°C° 0 mm 3 m/S 748 mmHg 40%
16:00 +29°C° 0.1 mm 4 m/S 748 mmHg 43%
17:00 +29°C° 0.1 mm 4 m/S 748 mmHg 47%
18:00 +28°C° 0.1 mm 4 m/S 748 mmHg 50%
19:00 +26°C° 1.3 mm 4 m/S 748 mmHg 60%
20:00 +24°C° 1.3 mm 3 m/S 748 mmHg 70%
21:00 +21°C° 1.3 mm 3 m/S 749 mmHg 80%
22:00 +20°C° 0.3 mm 3 m/S 749 mmHg 78%
23:00 +20°C° 0.3 mm 3 m/S 749 mmHg 77%

13 August, Donnerstag

Zeit Temperatur Niederschläge Wind Luftdruck Luftfeuchtigkeit
00:00 +19°C° 0.3 mm 3 m/S 749 mmHg 75%
01:00 +18°C° 0 mm 3 m/S 749 mmHg 75%
02:00 +18°C° 0 mm 4 m/S 749 mmHg 76%
03:00 +17°C° 0 mm 4 m/S 749 mmHg 76%
04:00 +15°C° 0 mm 4 m/S 749 mmHg 76%
05:00 +15°C° 0 mm 4 m/S 749 mmHg 77%
06:00 +15°C° 0 mm 4 m/S 749 mmHg 78%
07:00 +17°C° 0 mm 4 m/S 750 mmHg 71%
08:00 +19°C° 0 mm 4 m/S 750 mmHg 64%
09:00 +20°C° 0 mm 4 m/S 750 mmHg 57%
10:00 +21°C° 0 mm 4 m/S 750 mmHg 50%
11:00 +23°C° 0 mm 4 m/S 750 mmHg 44%
12:00 +25°C° 0 mm 3 m/S 750 mmHg 38%
13:00 +25°C° 0 mm 4 m/S 750 mmHg 37%
14:00 +26°C° 0 mm 4 m/S 750 mmHg 37%
15:00 +26°C° 0 mm 4 m/S 749 mmHg 36%
16:00 +26°C° 0 mm 4 m/S 749 mmHg 37%
17:00 +25°C° 0 mm 4 m/S 749 mmHg 37%
18:00 +25°C° 0 mm 4 m/S 749 mmHg 38%
19:00 +22°C° 0 mm 4 m/S 750 mmHg 43%
20:00 +21°C° 0 mm 4 m/S 750 mmHg 48%
21:00 +19°C° 0 mm 4 m/S 750 mmHg 52%
22:00 +18°C° 0 mm 4 m/S 750 mmHg 55%
23:00 +18°C° 0 mm 4 m/S 750 mmHg 58%

14 August, Freitag

Zeit Temperatur Niederschläge Wind Luftdruck Luftfeuchtigkeit
00:00 +17°C° 0 mm 3 m/S 750 mmHg 61%
01:00 +16°C° 0 mm 3 m/S 750 mmHg 64%
02:00 +16°C° 0 mm 3 m/S 750 mmHg 67%
03:00 +15°C° 0 mm 2 m/S 750 mmHg 69%
04:00 +15°C° 0 mm 2 m/S 750 mmHg 70%
05:00 +15°C° 0 mm 2 m/S 750 mmHg 71%
06:00 +15°C° 0 mm 2 m/S 750 mmHg 72%
07:00 +16°C° 0 mm 3 m/S 751 mmHg 66%
08:00 +18°C° 0 mm 3 m/S 751 mmHg 59%
09:00 +20°C° 0 mm 3 m/S 751 mmHg 53%
10:00 +21°C° 0 mm 3 m/S 751 mmHg 48%
11:00 +22°C° 0 mm 3 m/S 751 mmHg 43%
12:00 +24°C° 0 mm 3 m/S 751 mmHg 38%
13:00 +24°C° 0 mm 3 m/S 751 mmHg 38%
14:00 +24°C° 0 mm 3 m/S 751 mmHg 38%
15:00 +24°C° 0 mm 3 m/S 751 mmHg 39%
16:00 +24°C° 0 mm 3 m/S 751 mmHg 40%
17:00 +22°C° 0 mm 4 m/S 751 mmHg 42%
18:00 +21°C° 0 mm 4 m/S 751 mmHg 44%
19:00 +20°C° 0 mm 4 m/S 751 mmHg 45%
20:00 +19°C° 0 mm 3 m/S 752 mmHg 46%
21:00 +18°C° 0 mm 3 m/S 752 mmHg 46%
22:00 +17°C° 0 mm 3 m/S 752 mmHg 47%
23:00 +16°C° 0 mm 3 m/S 752 mmHg 48%

15 August, Samstag

Zeit Temperatur Niederschläge Wind Luftdruck Luftfeuchtigkeit
00:00 +14°C° 0 mm 4 m/S 752 mmHg 49%
01:00 +14°C° 0 mm 3 m/S 752 mmHg 51%
02:00 +13°C° 0 mm 3 m/S 753 mmHg 53%
03:00 +13°C° 0 mm 3 m/S 753 mmHg 55%
04:00 +13°C° 0 mm 3 m/S 753 mmHg 56%
05:00 +12°C° 0 mm 3 m/S 753 mmHg 58%
06:00 +12°C° 0 mm 3 m/S 753 mmHg 59%
07:00 +14°C° 0 mm 3 m/S 753 mmHg 55%
08:00 +17°C° 0 mm 3 m/S 753 mmHg 50%
09:00 +19°C° 0 mm 3 m/S 753 mmHg 46%
10:00 +20°C° 0 mm 3 m/S 753 mmHg 43%
11:00 +21°C° 0 mm 2 m/S 753 mmHg 39%
12:00 +23°C° 0 mm 2 m/S 753 mmHg 36%
13:00 +24°C° 0 mm 3 m/S 753 mmHg 34%
14:00 +25°C° 0 mm 3 m/S 752 mmHg 32%
15:00 +25°C° 0 mm 3 m/S 752 mmHg 30%
16:00 +25°C° 0 mm 3 m/S 752 mmHg 30%
17:00 +25°C° 0 mm 2 m/S 751 mmHg 30%
18:00 +25°C° 0 mm 2 m/S 751 mmHg 30%
19:00 +23°C° 0 mm 2 m/S 751 mmHg 36%
20:00 +20°C° 0 mm 2 m/S 751 mmHg 41%
21:00 +18°C° 0 mm 2 m/S 751 mmHg 47%
22:00 +19°C° 0 mm 1 m/S 751 mmHg 47%
23:00 +18°C° 0 mm 1 m/S 751 mmHg 48%
Mehr zeigen